Terminal Aerodrome Forecast
Issued by NWS

Home | Current Version | Previous Version | Text Only | Print | Product List | Glossary On
Versions: 1 2 3 4 5 6 7 8 9 10 11 12 13 14 15 16 17 18 19 20 21 22 23 24 25 26 27 28 29 30 31 32 33 34 35 36 37 38 39 40
000
FTUS41 KBOX 190525
TAFFMH
TAF
KFMH 190525Z 1906/2006 06008KT 6SM BR OVC005
     FM190900 02007KT P6SM OVC015
     FM191400 31005KT P6SM BKN020
     FM191700 31006KT P6SM BKN050
     FM192100 33005KT P6SM SCT120=

USA.gov is the U.S. government's official web portal to all federal, state and local government web resources and services.